Regional Weather Roundup
Issued by NWS

Home | Current Version | Previous Version | Graphics & Text | Print | Product List | Glossary On
Versions: 1 2 3 4 5 6 7 8 9 10 11 12 13 14 15 16 17 18 19 20 21 22 23 24 25 26 27 28 29 30 31 32 33 34 35 36 37 38 39 40 41 42 43 44 45 46 47 48 49 50
000
ASUS43 KBIS 261610
RWRND

NORTH DAKOTA REGIONAL WEATHER ROUNDUP
NATIONAL WEATHER SERVICE BISMARCK ND
1100 AM CDT SAT JUL 26 2014

NOTE: "FAIR" INDICATES FEW OR NO CLOUDS BELOW 12,000 FEET WITH NO
SIGNIFICANT WEATHER AND/OR OBSTRUCTIONS TO VISIBILITY.


NDZ001>003-009>011-017-261700-
NORTHWEST NORTH DAKOTA

CITY           SKY/WX    TMP DP  RH WIND       PRES   REMARKS
WILLISTON      CLOUDY    65  50  58 W22G35    29.91S
MINOT          PTSUNNY   66  52  60 W22G32    29.81S
MINOT AFB      PTSUNNY   66  55  67 W22G32    29.79F
$$

NDZ018>021-031>035-040>046-261700-
SOUTHWEST NORTH DAKOTA

CITY           SKY/WX    TMP DP  RH WIND       PRES   REMARKS
BISMARCK       SUNNY     72  49  44 W16G26    29.90S
DICKINSON      SUNNY     67  50  54 W21G29    29.95F
GARRISON         N/A     67  54  63 W22G29    29.86F
HETTINGER ARPT SUNNY     73  46  38 W21G32    30.01R
$$

NDZ004>008-012>016-024-026-027-054-261700-
NORTHEAST NORTH DAKOTA

CITY           SKY/WX    TMP DP  RH WIND       PRES   REMARKS
GRAND FORKS    MOSUNNY   73  58  59 W14G21    29.75R
GRND FRKS AFB  SUNNY     73  58  58 W14       29.76S
DEVILS LAKE    MOSUNNY   68  54  60 W24G32    29.76F
$$

NDZ022-023-025-028>030-036>039-047>053-261700-
SOUTHEAST NORTH DAKOTA

CITY           SKY/WX    TMP DP  RH WIND       PRES   REMARKS
FARGO          SUNNY     79  65  62 SW15      29.77F
JAMESTOWN      SUNNY     72  54  53 NW21G29   29.83S
$$



USA.gov is the U.S. government's official web portal to all federal, state and local government web resources and services.